Weather History for KJMS - April, 2014

Change the Weather History Date:

Tuesday, April 1, 2014

  Actual Average Record
Temperature  
Mean Temperature 15 °F 35 °F  
Max Temperature 24 °F 46 °F 78 °F (1907)
Min Temperature 5 °F 25 °F -5 °F (1975)
Degree Days  
Heating Degree Days 50 30  
Month to date heating degree days 50 30  
Since 1 July heating degree days 8589 7950  
Cooling Degree Days 0 0  
Month to date cooling degree days 0 0  
Year to date cooling degree days 0 0  
Moisture  
Dew Point 6 °F    
Average Humidity 70    
Maximum Humidity 84    
Minimum Humidity 55    
Precipitation  
Precipitation T in 0.03 in 0.98 in (1999)
Month to date precipitation T 0.03  
Year to date precipitation 0.55 1.72  
Sea Level Pressure  
Sea Level Pressure 30.14 in    
Wind  
Wind Speed 13 mph (NNW)    
Max Wind Speed 29 mph    
Max Gust Speed 35 mph    
Visibility 9 miles    
Events Snow    
T = Trace of Precipitation, MM = Missing Value Source: NWS Daily Summary

Daily Weather History Graph

Daily Weather History Graph

Search for Another Location

Airport or City:

Trip Planner

Search our weather history database for the weather conditions in past years. The results will help you decide how hot, cold, wet, or windy it might be!

Date:

Astronomy

Apr. 01, 2014 Rise Set
Actual Time 7:13 AM CDT 8:04 PM CDT
Civil Twilight 6:43 AM CDT 8:34 PM CDT
Nautical Twilight 6:06 AM CDT 9:11 PM CDT
Astronomical Twilight 5:27 AM CDT 9:50 PM CDT
Moon 8:10 AM CDT 10:37 PM CDT
Length of Visible Light 13h 51m
Length of Day
12h 50m
Waxing Crescent, 5% of the Moon is Illuminated
Apr 1
Waxing Crescent
Apr 7
First Quarter
Apr 15
Full
Apr 22
Last Quarter
Apr 29
New

Hourly Weather History & Observations

Time (CDT) Temp. Windchill Dew Point Humidity Pressure Visibility Wind Dir Wind Speed Gust Speed Precip Events Conditions
12:56 AM 12.0 °F -8.8 °F 9.0 °F 88% 30.05 in 1.2 mi NNW 27.6 mph 38.0 mph 0.00 in Snow Blowing Snow
1:19 AM 12.0 °F -7.7 °F 9.0 °F 88% 29.97 in 3.0 mi NNW 24.2 mph 33.4 mph N/A Snow Blowing Snow
1:56 AM 12.0 °F -7.7 °F 8.1 °F 84% 30.07 in 3.0 mi NNW 24.2 mph 33.4 mph N/A Snow Blowing Snow
2:56 AM 10.0 °F -10.8 °F 6.1 °F 84% 30.08 in 4.0 mi NNW 25.3 mph 32.2 mph N/A Snow Blowing Snow
3:56 AM 10.0 °F -10.4 °F 5.0 °F 80% 30.08 in 8.0 mi NNW 24.2 mph - N/A   Unknown
4:56 AM 9.0 °F -11.4 °F 3.0 °F 77% 30.09 in 10.0 mi NNW 23.0 mph - N/A   Unknown
5:56 AM 7.0 °F -12.6 °F 1.0 °F 77% 30.10 in 9.0 mi NNW 19.6 mph - 0.00 in Snow Light Snow
6:56 AM 6.1 °F -13.3 °F 1.0 °F 80% 30.10 in 10.0 mi NNW 18.4 mph - 0.00 in   Unknown
7:56 AM 6.1 °F -12.8 °F -0.0 °F 76% 30.12 in 10.0 mi NNW 17.3 mph - 0.00 in   Unknown
8:56 AM 7.0 °F -11.0 °F 1.0 °F 77% 30.14 in 9.0 mi NW 16.1 mph - 0.00 in Snow Light Snow
9:56 AM 10.0 °F -7.1 °F 3.0 °F 73% 30.15 in 9.0 mi NW 16.1 mph - 0.00 in Snow Light Snow
10:56 AM 12.9 °F -2.8 °F -0.0 °F 56% 30.15 in - NNW 15.0 mph - 0.00 in   Clear
11:56 AM 15.1 °F 0.5 °F 3.9 °F 61% 30.17 in 10.0 mi NNW 13.8 mph - N/A   Clear
12:56 PM 17.1 °F 2.0 °F 6.1 °F 62% 30.17 in 10.0 mi NW 16.1 mph - N/A   Clear
1:56 PM 19.0 °F 6.1 °F 8.1 °F 62% 30.17 in 10.0 mi NW 12.7 mph - N/A   Clear
2:56 PM 19.9 °F 7.9 °F 10.0 °F 65% 30.16 in 10.0 mi NW 11.5 mph - N/A   Clear
3:56 PM 21.9 °F 10.4 °F 10.9 °F 63% 30.15 in 10.0 mi NW 11.5 mph - N/A   Clear
4:56 PM 24.1 °F 13.7 °F 10.9 °F 57% 30.15 in 10.0 mi NNW 10.4 mph - N/A   Clear
5:56 PM 24.1 °F 15.2 °F 12.0 °F 60% 30.16 in 10.0 mi NNW 8.1 mph - N/A   Clear
6:56 PM 23.0 °F 14.7 °F 10.0 °F 58% 30.17 in 10.0 mi North 6.9 mph - N/A   Clear
7:56 PM 18.0 °F 9.8 °F 8.1 °F 65% 30.19 in 10.0 mi North 5.8 mph - N/A   Clear
8:56 PM 12.9 °F 5.2 °F 7.0 °F 77% 30.21 in 10.0 mi North 4.6 mph - N/A   Clear
9:56 PM 14.0 °F 8.2 °F 6.1 °F 71% 30.21 in 10.0 mi SSW 3.5 mph - N/A   Clear
10:56 PM 8.1 °F - 3.9 °F 83% 30.22 in 10.0 mi Calm Calm - N/A   Clear
11:56 PM 10.9 °F 4.7 °F 6.1 °F 81% 30.22 in 10.0 mi West 3.5 mph - N/A   Clear